Palo Verde, AZ

4:33 PM MST on August 31, 2016 (GMT -0700)
Buckeye Municipal

Weather History for KBXK - November, 2012

Change the Weather History Date:

Saturday, November 3, 2012

  Actual Average (KGYR) Record (KGYR)
Temperature  
Mean Temperature 67 °F -  
Max Temperature 84 °F 76 °F 89 °F (2001)
Min Temperature 50 °F 50 °F 44 °F (2004)
Cooling Degree Days 2    
Growing Degree Days 17 (Base 50)    
Moisture  
Dew Point 32 °F    
Average Humidity 27    
Maximum Humidity 37    
Minimum Humidity 18    
Precipitation  
Precipitation 0.00 in - - ()
Sea Level Pressure  
Sea Level Pressure 29.99 in    
Wind  
Wind Speed 5 mph (North)    
Max Wind Speed 12 mph    
Max Gust Speed -    
Visibility 9 miles    
Events      
Averages and records for this station are not official NWS values.
T = Trace of Precipitation, MM = Missing Value Source: NWS Daily Summary

Daily Weather History Graph

Daily Weather History Graph

Search for Another Location

Airport or City:

Trip Planner

Search our weather history database for the weather conditions in past years. The results will help you decide how hot, cold, wet, or windy it might be!

Date:

Astronomy

Nov. 03, 2012 Rise Set
Actual Time 6:51 AM MST 5:36 PM MST
Civil Twilight 6:25 AM MST 6:02 PM MST
Nautical Twilight 5:56 AM MST 6:31 PM MST
Astronomical Twilight 5:27 AM MST 7:00 PM MST
Moon 9:25 PM MST (11/3) 10:53 AM MST (11/3)
Length of Visible Light 11h 36m
Length of Day
10h 44m
Waning Gibbous, 79% of the Moon is Illuminated
Nov 3
Waning Gibbous
Nov 6
Last Quarter
Nov 13
New
Nov 20
First Quarter
Nov 28
Full

Hourly Weather History & Observations

Time (MST) Temp. Dew Point Humidity Pressure Visibility Wind Dir Wind Speed Gust Speed Precip Events Conditions
12:15 AM 66.2 °F 26.6 °F 23% 29.92 in 10.0 mi ESE 5.8 mph - N/A   Clear
12:35 AM 62.6 °F 32.0 °F 32% 29.93 in 10.0 mi SSE 4.6 mph - N/A   Clear
12:55 AM 62.6 °F 28.4 °F 27% 29.93 in 10.0 mi NW 5.8 mph - N/A   Clear
1:15 AM 62.6 °F 28.4 °F 27% 29.94 in 10.0 mi Calm Calm - N/A   Clear
1:35 AM 62.6 °F 26.6 °F 26% 29.94 in 10.0 mi North 6.9 mph - N/A   Clear
1:55 AM 60.8 °F 26.6 °F 27% 29.95 in 10.0 mi North 3.5 mph - N/A   Clear
2:15 AM 59.0 °F 26.6 °F 29% 29.95 in 10.0 mi North 3.5 mph - N/A   Clear
2:35 AM 57.2 °F 28.4 °F 33% 29.95 in 10.0 mi NNE 3.5 mph - N/A   Clear
2:55 AM 59.0 °F 24.8 °F 27% 29.95 in 10.0 mi North 4.6 mph - N/A   Clear
3:15 AM 59.0 °F 24.8 °F 27% 29.94 in 10.0 mi North 5.8 mph - N/A   Clear
3:35 AM 57.2 °F 24.8 °F 29% 29.95 in 10.0 mi North 4.6 mph - N/A   Clear
3:55 AM 57.2 °F 24.8 °F 29% 29.95 in 10.0 mi NNE 3.5 mph - N/A   Clear
4:15 AM 57.2 °F 24.8 °F 29% 29.95 in 10.0 mi North 4.6 mph - N/A   Clear
4:35 AM 57.2 °F 24.8 °F 29% 29.96 in 10.0 mi North 3.5 mph - N/A   Clear
4:55 AM 55.4 °F 24.8 °F 31% 29.96 in 10.0 mi NW 3.5 mph - N/A   Clear
5:15 AM 55.4 °F 24.8 °F 31% 29.97 in 10.0 mi North 3.5 mph - N/A   Clear
5:35 AM 55.4 °F 24.8 °F 31% 29.97 in 10.0 mi NNE 3.5 mph - N/A   Clear
5:55 AM 55.4 °F 28.4 °F 36% 29.98 in 10.0 mi Calm Calm - N/A   Clear
6:15 AM 55.4 °F 24.8 °F 31% 29.98 in 10.0 mi Calm Calm - N/A   Clear
6:35 AM 57.2 °F 26.6 °F 31% 29.99 in 10.0 mi Calm Calm - N/A   Clear
6:55 AM 50.0 °F 24.8 °F 37% 30.00 in 7.0 mi Calm Calm - N/A   Clear
7:15 AM 53.6 °F 26.6 °F 35% 30.00 in 2.5 mi NNW 3.5 mph - N/A   Clear
7:35 AM 55.4 °F 26.6 °F 33% 30.01 in 3.0 mi NNW 3.5 mph - N/A   Clear
8:15 AM 59.0 °F 30.2 °F 34% 30.02 in 5.0 mi Calm Calm - N/A   Clear
8:35 AM 60.8 °F 33.8 °F 36% 30.03 in 10.0 mi Calm Calm - N/A   Clear
8:55 AM 62.6 °F 32.0 °F 32% 30.03 in 10.0 mi Calm Calm - N/A   Clear
9:15 AM 64.4 °F 32.0 °F 30% 30.04 in 10.0 mi WSW 3.5 mph - N/A   Clear
9:35 AM 66.2 °F 32.0 °F 28% 30.04 in 10.0 mi Calm Calm - N/A   Clear
9:55 AM 68.0 °F 37.4 °F 33% 30.04 in 9.0 mi Calm Calm - N/A   Clear
10:15 AM 68.0 °F 39.2 °F 35% 30.04 in 8.0 mi South 3.5 mph - N/A   Clear
10:35 AM 69.8 °F 41.0 °F 35% 30.04 in 9.0 mi WSW 6.9 mph - N/A   Clear
10:55 AM 73.4 °F 37.4 °F 27% 30.03 in 10.0 mi ESE 11.5 mph - N/A   Clear
11:15 AM 75.2 °F 35.6 °F 24% 30.03 in 10.0 mi ESE 11.5 mph - N/A   Clear
11:35 AM 77.0 °F 35.6 °F 22% 30.03 in 10.0 mi ESE 10.4 mph - N/A   Clear
11:55 AM 77.0 °F 37.4 °F 24% 30.02 in 10.0 mi ESE 11.5 mph - N/A   Clear
12:15 PM 78.8 °F 37.4 °F 23% 30.02 in 10.0 mi ESE 11.5 mph - N/A   Clear
12:35 PM 78.8 °F 35.6 °F 21% 30.01 in 10.0 mi SE 8.1 mph - N/A   Clear
12:55 PM 80.6 °F 35.6 °F 20% 30.00 in 10.0 mi ESE 8.1 mph - N/A   Clear
1:15 PM 80.6 °F 37.4 °F 21% 29.99 in 10.0 mi ESE 6.9 mph - N/A   Clear
1:35 PM 80.6 °F 37.4 °F 21% 29.99 in 10.0 mi SE 6.9 mph - N/A   Clear
1:55 PM 80.6 °F 37.4 °F 21% 29.98 in 10.0 mi SSE 5.8 mph - N/A   Clear
2:15 PM 82.4 °F 35.6 °F 19% 29.98 in 10.0 mi SSE 3.5 mph - N/A   Clear
2:35 PM 82.4 °F 35.6 °F 19% 29.98 in 10.0 mi SE 4.6 mph - N/A   Clear
2:55 PM 82.4 °F 37.4 °F 20% 29.98 in 10.0 mi South 3.5 mph - N/A   Clear
3:15 PM 82.4 °F 35.6 °F 19% 29.98 in 10.0 mi Calm Calm - N/A   Clear
3:35 PM 84.2 °F 35.6 °F 18% 29.97 in 10.0 mi WSW 3.5 mph - N/A   Clear
3:55 PM 84.2 °F 35.6 °F 18% 29.97 in 10.0 mi Calm Calm - N/A   Clear
4:15 PM 84.2 °F 35.6 °F 18% 29.96 in 10.0 mi WSW 3.5 mph - N/A   Clear
4:35 PM 84.2 °F 35.6 °F 18% 29.96 in 10.0 mi South 4.6 mph - N/A   Clear
4:55 PM 84.2 °F 35.6 °F 18% 29.97 in 10.0 mi SSW 3.5 mph - N/A   Clear
5:15 PM 82.4 °F 37.4 °F 20% 29.97 in 10.0 mi Calm Calm - N/A   Clear
5:35 PM 78.8 °F 41.0 °F 26% 29.97 in 7.0 mi South 3.5 mph - N/A   Clear
5:55 PM 75.2 °F 41.0 °F 29% 29.97 in 5.0 mi South 4.6 mph - N/A   Clear
6:15 PM 75.2 °F 42.8 °F 31% 29.97 in 7.0 mi South 3.5 mph - N/A   Clear
6:35 PM 73.4 °F 41.0 °F 31% 29.98 in 8.0 mi Calm Calm - N/A   Clear
6:55 PM 71.6 °F 37.4 °F 29% 29.98 in 10.0 mi West 3.5 mph - N/A   Clear
7:15 PM 69.8 °F 37.4 °F 31% 29.98 in 5.0 mi West 3.5 mph - N/A   Clear
7:35 PM 68.0 °F 33.8 °F 28% 29.98 in 7.0 mi NNW 4.6 mph - N/A   Clear
7:55 PM 68.0 °F 32.0 °F 26% 29.99 in 10.0 mi North 6.9 mph - N/A   Clear
8:15 PM 66.2 °F 32.0 °F 28% 29.99 in 10.0 mi North 8.1 mph - N/A   Clear
8:35 PM 66.2 °F 32.0 °F 28% 30.00 in 10.0 mi North 6.9 mph - N/A   Clear
8:55 PM 66.2 °F 32.0 °F 28% 30.00 in 9.0 mi NNE 5.8 mph - N/A   Clear
9:15 PM 64.4 °F 32.0 °F 30% 30.00 in 10.0 mi North 8.1 mph - N/A   Clear
9:35 PM 64.4 °F 32.0 °F 30% 30.01 in 10.0 mi North 9.2 mph - N/A   Clear
9:55 PM 64.4 °F 32.0 °F 30% 30.01 in 10.0 mi NNW 6.9 mph - N/A   Clear
10:15 PM 62.6 °F 32.0 °F 32% 30.01 in 7.0 mi NNW 10.4 mph - N/A   Clear
10:35 PM 66.2 °F 32.0 °F 28% 30.02 in 10.0 mi NNW 10.4 mph - N/A   Clear
10:55 PM 68.0 °F 32.0 °F 26% 30.02 in 10.0 mi North 10.4 mph - N/A   Clear
11:15 PM 66.2 °F 32.0 °F 28% 30.03 in 10.0 mi North 9.2 mph - N/A   Clear
11:35 PM 64.4 °F 32.0 °F 30% 30.03 in 9.0 mi NNW 8.1 mph - N/A   Clear